Location: �bnet
(46.9957°N, 8.4908°E)
Time: 00:13:08
(UTC+00:00)

Meteor 2-9 Rocket - Pass Details

Date: 11 May 2021
Orbit: 791 x 895 km, 81.3° (Epoch: 18 June)

Event Time Altitude Azimuth Distance (km) Brightness Sun altitude
Rises 22:19:05 0° 348° (NNW) 3,503 8.9 -23.3°
Reaches altitude 10° 22:21:34 10° 349° (NNW) 2,549 7.8 -23.5°
Maximum altitude 22:27:23 89° 263° (W) 873 4.2 -23.7°
Enters shadow 22:28:37 57° 171° (S) 1,006 4.2 -23.8°
